Hourly Data Report for October 17, 2017

All times are specified in Local Standard Time (LST). Add 1 hour to adjust for Daylight Saving Time where and when it is observed.

FREDERICTON
NEW BRUNSWICK

45°52'08.000" N
66°32'14.000" W
20.70 m
8101505
71700
YFC

Download Data

Hourly Data (October 2017)
Hourly Data Report for October 17, 2017
Temp Definition
°C
Dew Point Temp Definition
°C
Rel Hum Definition
%
Wind Dir Definition
10's deg

Wind Spd Definition
km/h
Visibility Definition
km
Stn Press Definition
kPa
Hmdx Definition


Wind Chill Definition


Weather Definition


TIME
00:00 Legend Double Dagger 3.1 -0.2 79 32 9 16.1 101.54     LegendNANA
01:00 Legend Double Dagger 2.3 -0.6 81 30 11 16.1 101.58     LegendNANA
02:00 Legend Double Dagger 1.5 -0.8 85 31 9 16.1 101.60     LegendNANA
03:00 Legend Double Dagger 0.5 -1.1 89 30 8 16.1 101.59     LegendNANA
04:00 Legend Double Dagger 0.6 -1.3 87 31 9 16.1 101.66     LegendNANA
05:00 Legend Double Dagger -0.3 -1.6 91 28 5 16.1 101.75   -2 LegendNANA
06:00 Legend Double Dagger -0.2 -1.6 90 29 9 16.1 101.79   -3 LegendNANA
07:00 Legend Double Dagger -0.5 -1.6 92 28 4 16.1 101.82   -2 LegendNANA
08:00 Legend Double Dagger 1.4 -0.9 85 29 9 16.1 101.92     LegendNANA
09:00 Legend Double Dagger 4.5 -0.5 70 26 8 16.1 101.93     LegendNANA
10:00 Legend Double Dagger 6.5 -0.6 61 33 13 16.1 101.91     LegendNANA
11:00 Legend Double Dagger 7.4 -4.3 43 29 15 16.1 101.88     LegendNANA
12:00 Legend Double Dagger 8.2 -4.3 41 29 22 16.1 101.87     LegendNANA
13:00 Legend Double Dagger 9.4 -5.4 35 30 18 16.1 101.80     LegendNANA
14:00 Legend Double Dagger 10.5 -4.6 34 32 15 16.1 101.77     LegendNANA
15:00 Legend Double Dagger 10.7 -3.6 36 25 13 16.1 101.72     LegendNANA
16:00 Legend Double Dagger 10.8 -3.8 36 24 15 16.1 101.71     LegendNANA
17:00 Legend Double Dagger 9.6 -1.9 44 23 8 16.1 101.70     LegendNANA
18:00 Legend Double Dagger 5.9 -0.2 65 20 8 16.1 101.70     LegendNANA
19:00 Legend Double Dagger 5.4 -0.2 67 22 8 16.1 101.72     LegendNANA
20:00 Legend Double Dagger 5.9 -0.3 65 18 13 16.1 101.70     LegendNANA
21:00 Legend Double Dagger 4.3 -0.5 71 19 13 16.1 101.74     LegendNANA
22:00 Legend Double Dagger 4.8 -0.3 69 20 13 16.1 101.72     LegendNANA
23:00 Legend Double Dagger 5.3 0.1 69 20 17 16.1 101.68     LegendNANA

Notes on Data Quality.

Legend

  • E = Estimated
  • M = Missing
  • NA = Not Available
  • ‡ = Partner data that is not subject to review by the National Climate Archives
Date modified: